[[{"header":{"parameterUnit":"m.s-1","parameterCategory":1,"la1":30.2991,"la2":30.254,"lo1":-89.0895,"lo2":-89.0444,"dy":0.0017,"dx":0.0017,"nx":28,"ny":28,"refTime":"2023-09-17T09:00:00:Z","depth":0,"parameterNumber":2,"parameterNumberName":"U-component_of_WINDS"},"data":[0,0,0,0,0,0,0,0,0,0,0,0,0,0,0,0,0,0,0,0,0,0,0,0,0,0,0,0,0,0,0,0,0,0,0,0,0,0,0,0,0,0,0,0,0,0,0,0,0,0,0,0,0,0,0,0,0,0,1.4233,1.4233,0,1.4243,1.4243,1.4243,1.4243,1.4243,1.4242,1.4242,1.4253,1.4254,1.4254,0,0,0,0,0,0,0,0,0,0,0,0,0,1.4216,1.4216,1.4233,1.4233,1.4233,1.4243,1.4243,1.4243,1.4243,1.4243,1.4242,1.4242,1.4253,1.4254,1.4254,0,0,0,0,0,0,0,0,0,0,0,0,0,1.4224,1.4217,1.4233,1.4234,1.4235,1.4243,1.4243,1.4243,1.4243,1.4243,1.4242,1.4242,1.4253,1.4253,1.4254,1.4262,0,0,1.4256,1.4256,0,0,0,0,0,0,0,0,1.4224,1.4225,1.4234,1.4234,1.4235,1.4241,1.4241,1.425,1.4243,1.424,1.4242,1.4242,1.4249,1.425,1.4253,1.4263,1.4263,1.4256,1.4256,1.4257,1.4257,0,0,0,0,0,0,0,1.4223,1.4225,1.4237,1.4234,1.4235,1.4235,1.4236,1.4243,1.4246,1.424,1.424,1.4241,1.425,1.4252,1.4253,1.4263,1.4256,1.4257,1.4257,1.4257,1.4282,1.4282,0,0,0,0,0,0,1.4222,1.4224,1.4237,1.4237,1.4229,1.4235,1.4237,1.4239,1.4246,1.4246,1.4241,1.4241,1.4251,1.4252,1.4253,1.4263,1.4257,1.4257,1.4258,1.4281,1.4282,1.4282,0,0,0,0,0,0,1.4222,1.4224,1.4236,1.4231,1.4232,1.4236,1.4239,1.424,1.4242,1.4247,1.4247,1.4243,1.4251,1.4252,1.426,1.4264,1.4258,1.4258,1.4281,1.4281,1.4282,1.4284,0,0,0,0,0,0,1.4222,1.4223,1.4226,1.4231,1.4233,1.4242,1.4239,1.424,1.4243,1.4243,1.4248,1.4249,1.4251,1.4259,1.4261,1.4265,1.4259,1.4281,1.4281,1.4282,1.4283,1.4284,1.4285,0,0,0,0,0,1.4221,1.4226,1.4226,1.4228,1.4236,1.4243,1.4244,1.4245,1.4243,1.4246,1.4249,1.4249,1.4263,1.426,1.4262,1.4266,1.428,1.4281,1.4282,1.4283,1.4284,1.4285,0,0,0,0,0,0,1.4222,1.4227,1.4227,1.4234,1.4238,1.4242,1.4246,1.4246,1.4251,1.4251,1.4253,1.4254,1.4262,1.4265,1.4261,1.4275,1.4272,1.4273,1.4272,1.4273,1.4274,1.4273,1.4259,0,0,0,0,0,1.4222,1.4227,1.4232,1.4237,1.4239,1.4242,1.4245,1.4246,1.4251,1.4253,1.4256,1.4261,1.4267,1.427,1.4276,1.4284,1.4286,1.4288,1.4289,1.4289,1.429,1.4295,1.4296,1.4284,1.4284,1.4284,0,0,1.4224,1.4228,1.423,1.4237,1.4241,1.4246,1.4244,1.4249,1.4253,1.4253,1.4261,1.4264,1.4269,1.4278,1.4282,1.428,1.4294,1.429,1.429,1.4291,1.4296,1.4297,1.4298,1.4284,1.4284,1.4284,0,0,1.423,1.4233,1.4238,1.4242,1.4247,1.4249,1.4251,1.4256,1.4258,1.4265,1.4266,1.4271,1.4281,1.4285,1.4288,1.4297,1.4297,1.4299,1.4303,1.4308,1.4309,1.431,1.4313,1.4314,1.43,1.43,1.43,0,1.4232,1.4239,1.4241,1.4247,1.425,1.4251,1.4256,1.426,1.4267,1.4269,1.4268,1.428,1.4284,1.4294,1.4296,1.4299,1.4301,1.4298,1.4308,1.4309,1.431,1.4313,1.4315,1.43,1.43,1.43,1.43,0,1.4241,1.4246,1.425,1.4256,1.426,1.4266,1.4269,1.4273,1.4274,1.4277,1.4285,1.429,1.4297,1.4299,1.4301,1.4309,1.4309,1.4308,1.4305,1.4312,1.4315,1.4316,1.43,1.43,1.43,1.43,0,0,1.4246,1.4255,1.4256,1.4259,1.4265,1.427,1.4276,1.4282,1.4286,1.4291,1.4296,1.4305,1.4305,1.4309,1.4311,1.4315,1.4322,1.4314,1.4314,1.4315,1.4333,1.4333,1.4334,1.4323,1.4323,1.4323,1.4332,0,1.4253,1.4263,1.4265,1.4274,1.4279,1.4281,1.4287,1.4292,1.4295,1.43,1.4304,1.431,1.4309,1.4312,1.4316,1.432,1.4326,1.432,1.4328,1.4329,1.4326,1.4336,1.4335,1.4343,1.4334,1.4334,1.4334,0,1.4261,1.4266,1.4275,1.4282,1.4284,1.4289,1.4295,1.43,1.4306,1.4309,1.4313,1.4315,1.4323,1.432,1.4331,1.4327,1.4331,1.4334,1.4334,1.4334,1.4331,1.4336,1.4346,1.4347,1.4336,1.4336,1.4335,0,1.4264,1.4273,1.428,1.4283,1.429,1.4294,1.4297,1.4303,1.4307,1.4313,1.4316,1.4323,1.4327,1.4333,1.4337,1.4335,1.4347,1.4345,1.4349,1.4349,1.4351,1.4351,1.4362,1.4355,1.4355,1.4355,1.4355,0,1.427,1.4276,1.4281,1.4285,1.4292,1.4296,1.4302,1.4306,1.4312,1.4317,1.432,1.4325,1.433,1.4336,1.434,1.4348,1.435,1.4352,1.4353,1.4352,1.4351,1.4354,1.4353,1.4355,1.4355,1.4355,1.4355,0,1.4274,1.4278,1.4285,1.4292,1.4294,1.4299,1.4305,1.4309,1.4313,1.432,1.4322,1.4328,1.4336,1.4341,1.4351,1.4353,1.4362,1.4363,1.436,1.436,1.4364,1.4363,1.4376,1.4378,1.437,1.437,1.437,0,1.4277,1.4281,1.4289,1.4292,1.4296,1.4302,1.4306,1.431,1.4315,1.4322,1.4326,1.4334,1.434,1.4353,1.4358,1.4366,1.4367,1.4371,1.4368,1.4367,1.4367,1.4366,1.4367,1.4371,1.4371,1.4371,1.4371,0,1.4283,1.4285,1.429,1.4297,1.4302,1.4307,1.4313,1.4316,1.4321,1.4326,1.4334,1.4339,1.4349,1.4357,1.4365,1.437,1.4372,1.4372,1.4374,1.4372,1.437,1.4371,1.436,1.4372,1.4372,1.4372,1.4372,1.4372,1.4286,1.429,1.4296,1.4303,1.4307,1.4313,1.4317,1.4322,1.4328,1.4336,1.4339,1.4347,1.4354,1.4366,1.4371,1.4377,1.4377,1.4379,1.4379,1.438,1.438,1.4369,1.4379,1.4379,1.4379,1.4379,1.4379,0,1.4292,1.4296,1.4302,1.4309,1.4315,1.4316,1.4322,1.4327,1.4334,1.434,1.4346,1.4356,1.4364,1.437,1.4379,1.4383,1.4384,1.4385,1.4385,1.4386,1.438,1.4377,1.4384,1.4384,1.4384,1.4384,1.4384,1.4384,1.4295,1.4302,1.4305,1.4315,1.4319,1.4326,1.433,1.4335,1.4341,1.435,1.4357,1.4361,1.4368,1.4377,1.4385,1.4387,1.439,1.4391,1.4393,1.4387,1.4386,1.4385,1.4383,1.4391,1.4391,1.4398,1.4398,1.4398]},{"header":{"parameterUnit":"m.s-1","parameterCategory":1,"la1":30.2991,"la2":30.254,"lo1":-89.0895,"lo2":-89.0444,"dy":0.0017,"dx":0.0017,"nx":28,"ny":28,"refTime":"2023-09-17T09:00:00:Z","depth":0,"parameterNumber":3,"parameterNumberName":"V-component_of_WINDS"},"data":[0,0,0,0,0,0,0,0,0,0,0,0,0,0,0,0,0,0,0,0,0,0,0,0,0,0,0,0,0,0,0,0,0,0,0,0,0,0,0,0,0,0,0,0,0,0,0,0,0,0,0,0,0,0,0,0,0,0,-3.4241,-3.4242,0,-3.4311,-3.4312,-3.4312,-3.4255,-3.4253,-3.425,-3.4248,-3.4318,-3.4322,-3.4326,0,0,0,0,0,0,0,0,0,0,0,0,0,-3.4055,-3.4058,-3.4241,-3.4242,-3.4243,-3.4311,-3.4312,-3.4313,-3.4255,-3.4253,-3.425,-3.4247,-3.4317,-3.4322,-3.4326,0,0,0,0,0,0,0,0,0,0,0,0,0,-3.4131,-3.4059,-3.4241,-3.4222,-3.4221,-3.4311,-3.4312,-3.4313,-3.4256,-3.4252,-3.4249,-3.4245,-3.4315,-3.4321,-3.4327,-3.4438,0,0,-3.4346,-3.4349,0,0,0,0,0,0,0,0,-3.4127,-3.4138,-3.4224,-3.4224,-3.4223,-3.4271,-3.4272,-3.4355,-3.4257,-3.4243,-3.4248,-3.4244,-3.4305,-3.4312,-3.4333,-3.4441,-3.4444,-3.4347,-3.435,-3.4353,-3.4355,0,0,0,0,0,0,0,-3.4122,-3.4135,-3.4268,-3.4225,-3.4225,-3.421,-3.4216,-3.4287,-3.4293,-3.4244,-3.424,-3.4249,-3.4304,-3.4327,-3.4334,-3.4445,-3.4346,-3.4352,-3.4356,-3.4358,-3.4645,-3.4649,0,0,0,0,0,0,-3.4118,-3.4131,-3.4266,-3.427,-3.4165,-3.4216,-3.4224,-3.4259,-3.4292,-3.4294,-3.4252,-3.4246,-3.4318,-3.4327,-3.4336,-3.4467,-3.4353,-3.4359,-3.4362,-3.4642,-3.4646,-3.4651,0,0,0,0,0,0,-3.4115,-3.4131,-3.4263,-3.42,-3.4215,-3.4223,-3.4263,-3.4262,-3.4285,-3.4299,-3.4299,-3.4275,-3.4316,-3.4328,-3.4413,-3.4469,-3.4361,-3.4367,-3.4637,-3.4643,-3.4648,-3.473,0,0,0,0,0,0,-3.411,-3.413,-3.4173,-3.4201,-3.4219,-3.434,-3.4267,-3.4266,-3.4296,-3.4289,-3.432,-3.4322,-3.4314,-3.4404,-3.4419,-3.4475,-3.4372,-3.4632,-3.464,-3.4647,-3.4723,-3.4738,-3.4752,0,0,0,0,0,-3.4103,-3.4193,-3.4176,-3.4192,-3.4273,-3.4343,-3.4353,-3.4343,-3.4301,-3.4344,-3.4352,-3.4321,-3.446,-3.4413,-3.4429,-3.4489,-3.4628,-3.4637,-3.4646,-3.4716,-3.4735,-3.4751,0,0,0,0,0,0,-3.4172,-3.4197,-3.4177,-3.4279,-3.431,-3.4333,-3.4387,-3.4364,-3.4406,-3.4398,-3.4382,-3.439,-3.4479,-3.4492,-3.4439,-3.4596,-3.4537,-3.455,-3.4585,-3.4603,-3.4617,-3.4612,-3.4377,0,0,0,0,0,-3.4199,-3.4255,-3.4273,-3.4361,-3.4377,-3.438,-3.441,-3.4399,-3.443,-3.4442,-3.4457,-3.4487,-3.4537,-3.4571,-3.4618,-3.4724,-3.4729,-3.4772,-3.4787,-3.4799,-3.481,-3.4865,-3.4885,-3.468,-3.4679,-3.4679,0,0,-3.4255,-3.4276,-3.4312,-3.4375,-3.4398,-3.4455,-3.4391,-3.4454,-3.4496,-3.4451,-3.4533,-3.4544,-3.4577,-3.4672,-3.4715,-3.4686,-3.4867,-3.481,-3.4819,-3.4824,-3.4876,-3.4896,-3.4913,-3.4686,-3.4684,-3.4684,0,0,-3.4387,-3.4409,-3.4484,-3.4507,-3.4542,-3.4542,-3.456,-3.4587,-3.4594,-3.4675,-3.4642,-3.4691,-3.4778,-3.4802,-3.4826,-3.4965,-3.4938,-3.4981,-3.5057,-3.5111,-3.5128,-3.5142,-3.5191,-3.5209,-3.4992,-3.4992,-3.4992,0,-3.4453,-3.4539,-3.4526,-3.4591,-3.462,-3.4581,-3.4657,-3.468,-3.4728,-3.4748,-3.4714,-3.4822,-3.4842,-3.4942,-3.4976,-3.4996,-3.5015,-3.4978,-3.5126,-3.5141,-3.5154,-3.52,-3.5219,-3.4997,-3.4997,-3.4996,-3.4996,0,-3.4617,-3.4677,-3.4733,-3.4781,-3.4815,-3.4886,-3.4882,-3.4918,-3.4904,-3.4908,-3.499,-3.5012,-3.5062,-3.5085,-3.5072,-3.5183,-3.5163,-3.5129,-3.5069,-3.5178,-3.5222,-3.5239,-3.5004,-3.5003,-3.5001,-3.5,0,0,-3.4796,-3.4834,-3.4855,-3.4875,-3.491,-3.4955,-3.5023,-3.5072,-3.5103,-3.5137,-3.5192,-3.5266,-3.5234,-3.5261,-3.525,-3.5297,-3.5405,-3.5256,-3.5257,-3.5283,-3.5528,-3.5554,-3.5575,-3.5387,-3.539,-3.5393,-3.5525,0,-3.4929,-3.5048,-3.5037,-3.5149,-3.5204,-3.5167,-3.5226,-3.5252,-3.5257,-3.5303,-3.5308,-3.5361,-3.5314,-3.533,-3.5375,-3.5383,-3.5454,-3.5373,-3.5438,-3.544,-3.5431,-3.5598,-3.5626,-3.575,-3.5542,-3.5545,-3.5547,0,-3.5101,-3.5141,-3.5259,-3.5283,-3.5305,-3.5359,-3.5402,-3.5447,-3.5475,-3.5475,-3.5505,-3.5485,-3.5551,-3.549,-3.5581,-3.5526,-3.5551,-3.5559,-3.5563,-3.5569,-3.55,-3.5608,-3.5789,-3.5807,-3.5573,-3.5571,-3.5569,0,-3.522,-3.5302,-3.5383,-3.5401,-3.5432,-3.547,-3.5484,-3.551,-3.5539,-3.5577,-3.5596,-3.5641,-3.5665,-3.57,-3.5692,-3.5648,-3.5785,-3.5723,-3.5786,-3.5786,-3.5817,-3.5815,-3.6004,-3.5833,-3.5833,-3.5833,-3.5832,0,-3.537,-3.5443,-3.5436,-3.5486,-3.5566,-3.5552,-3.5632,-3.5641,-3.5664,-3.5714,-3.5684,-3.5732,-3.5718,-3.5765,-3.5759,-3.5834,-3.5846,-3.5847,-3.5845,-3.585,-3.585,-3.5867,-3.5858,-3.5838,-3.5836,-3.5835,-3.5835,0,-3.5516,-3.5515,-3.56,-3.5622,-3.5628,-3.5687,-3.5705,-3.5751,-3.5752,-3.5816,-3.583,-3.5833,-3.5885,-3.5881,-3.594,-3.5936,-3.6029,-3.6017,-3.602,-3.6017,-3.608,-3.6075,-3.6288,-3.6314,-3.6126,-3.6128,-3.6129,0,-3.5612,-3.5668,-3.5695,-3.5726,-3.5743,-3.5795,-3.5825,-3.5812,-3.5844,-3.588,-3.5922,-3.5972,-3.6011,-3.6097,-3.6104,-3.6149,-3.6137,-3.6208,-3.6143,-3.6146,-3.6137,-3.6134,-3.6139,-3.6221,-3.6223,-3.6225,-3.6226,0,-3.5783,-3.5779,-3.5824,-3.5868,-3.5905,-3.5939,-3.597,-3.5997,-3.5988,-3.6025,-3.6079,-3.611,-3.617,-3.6219,-3.6261,-3.6275,-3.6249,-3.6247,-3.6263,-3.627,-3.6269,-3.627,-3.6055,-3.6242,-3.624,-3.6239,-3.6238,-3.6238,-3.5907,-3.5954,-3.598,-3.6031,-3.6052,-3.6082,-3.6126,-3.6133,-3.6177,-3.6226,-3.6215,-3.6275,-3.63,-3.6354,-3.6372,-3.6418,-3.6392,-3.6416,-3.6423,-3.6429,-3.6436,-3.6262,-3.6425,-3.6425,-3.6424,-3.6424,-3.6424,0,-3.6076,-3.6091,-3.6137,-3.6181,-3.622,-3.6192,-3.6225,-3.6259,-3.6313,-3.6338,-3.6378,-3.6438,-3.6486,-3.6496,-3.6541,-3.6576,-3.6565,-3.6588,-3.6585,-3.6588,-3.6457,-3.6438,-3.6596,-3.6596,-3.6596,-3.6596,-3.6596,-3.6596,-3.6169,-3.6247,-3.6246,-3.6333,-3.6346,-3.6406,-3.6426,-3.6452,-3.6473,-3.6542,-3.6581,-3.6587,-3.6606,-3.6652,-3.6694,-3.6695,-3.6713,-3.6741,-3.6738,-3.6615,-3.6598,-3.6581,-3.6563,-3.6745,-3.6745,-3.6865,-3.6866,-3.6867]}]]